{"data":{"norad_id":61879,"intl_designator":"2024-204F","name":"STARLINK-11324 [DTC]","alt_names":[],"object_type":"PAYLOAD","status":"ACTIVE","operator":null,"country":"US","launch_date":"2024-11-09","launch_site_code":"AFWTR","launch_vehicle":null,"mission":null,"orbit_class":"UNKNOWN","rcs_meters":null,"size_class":null,"mass_kg":null,"dimensions":null,"purposes":["comms"],"wikipedia_slug":null,"has_3d_model":false,"image_url":null,"decayed_at":null,"tle_current":{"epoch":"2026-09-21T20:36:17.652096Z","epoch_age_seconds":71191,"freshness":"FRESH","line1":"1 61879U 24204F   26264.85853764  .00000150  00000+0  60933-5 0  9990","line2":"2 61879  53.1588 109.3340 0000913 102.4578 257.6542 15.69705867107725","mean_motion":15.69705867,"eccentricity":9.13e-5,"inclination_deg":53.1588,"raan_deg":109.334,"arg_perigee_deg":102.4578,"mean_anomaly_deg":257.6542,"bstar":6.0933e-6,"rev_number":10772,"period_min":91.736931757292,"perigee_km":359.12340946948,"apogee_km":360.35374554993,"semimajor_km":6737.8755775097,"source":"CELESTRAK","updated_at":"2026-09-22T09:00:49.445412Z"}}}